PulseSat

PulseSat

GSAT0210 (GALILEO 13)

Last updated on Dec. 10, 2018, 12:08 a.m. UTC

1 41550U 16030B   18343.11508697 -.00000053  00000-0  00000+0 0  9999
2 41550  56.7404 297.1801 0003816 270.2665  89.6701  1.70474314 15814
UTC
Height (km)
Latitude
Longitude
Inclination
Orbital Period

Next 30 passes for location: Hong Kong

Rise time Rise Azimuth (degrees) Set time Set Azimuth (degrees) Duration Max altitude (degrees)

No matching passes for this satellites

PulseSat

PulseSat is the new satellites software and hardware trackering solution by Pulsely.
Satellite Two Line Element Set source: US Air Force Space Command

Download PulseSat for iOS
© 2017 Pulsely Limited